TimeEST,TemperatureF,Dew PointF,Humidity,Sea Level PressureIn,VisibilityMPH,Wind Direction,Wind SpeedMPH,Gust SpeedMPH,PrecipitationIn,Events,Conditions,WindDirDegrees,DateUTC
12:53 AM,75.9,69.1,79,30.03,10.0,SE,9.2,-,N/A,,Clear,140,2013-02-23 05:53:00
1:53 AM,75.9,69.1,79,30.01,10.0,SE,6.9,-,N/A,,Scattered Clouds,140,2013-02-23 06:53:00
2:12 AM,75.2,69.8,83,30.00,10.0,SSE,11.5,17.3,N/A,,Mostly Cloudy,150,2013-02-23 07:12:00
2:21 AM,75.2,68.0,78,30.00,10.0,SE,9.2,19.6,N/A,,Scattered Clouds,140,2013-02-23 07:21:00
2:53 AM,75.9,68.0,76,29.99,10.0,SE,8.1,-,N/A,,Clear,140,2013-02-23 07:53:00
3:53 AM,75.9,68.0,76,29.98,10.0,SE,8.1,17.3,N/A,,Clear,140,2013-02-23 08:53:00
4:53 AM,75.9,69.1,79,29.98,10.0,SE,8.1,-,N/A,,Clear,140,2013-02-23 09:53:00
5:53 AM,75.9,69.1,79,29.98,10.0,SE,8.1,-,N/A,,Mostly Cloudy,140,2013-02-23 10:53:00
6:53 AM,75.9,69.1,79,29.99,10.0,SE,9.2,19.6,N/A,,Partly Cloudy,140,2013-02-23 11:53:00
7:53 AM,77.0,70.0,79,30.00,10.0,SE,8.1,16.1,N/A,,Scattered Clouds,130,2013-02-23 12:53:00
8:53 AM,77.0,70.0,79,30.01,10.0,SE,8.1,-,N/A,,Scattered Clouds,140,2013-02-23 13:53:00
9:53 AM,80.1,70.0,71,30.02,10.0,SE,8.1,-,N/A,,Mostly Cloudy,130,2013-02-23 14:53:00
10:53 AM,81.0,71.1,72,30.03,10.0,SSE,8.1,-,N/A,,Mostly Cloudy,150,2013-02-23 15:53:00
11:01 AM,80.6,71.6,74,30.02,10.0,SE,6.9,-,N/A,,Mostly Cloudy,140,2013-02-23 16:01:00
11:33 AM,82.4,71.6,70,30.02,10.0,Variable,6.9,-,N/A,,Scattered Clouds,0,2013-02-23 16:33:00
11:53 AM,82.9,71.1,67,30.02,10.0,SSE,5.8,-,N/A,,Partly Cloudy,150,2013-02-23 16:53:00
12:53 PM,84.0,72.0,67,29.99,10.0,SSE,4.6,-,N/A,,Partly Cloudy,160,2013-02-23 17:53:00
1:53 PM,82.9,71.1,67,29.97,10.0,SSE,9.2,-,N/A,,Clear,160,2013-02-23 18:53:00
2:53 PM,82.9,70.0,65,29.96,10.0,South,6.9,-,N/A,,Clear,170,2013-02-23 19:53:00
3:53 PM,82.0,70.0,67,29.95,10.0,SSE,3.5,-,N/A,,Partly Cloudy,160,2013-02-23 20:53:00
4:53 PM,80.1,70.0,71,29.94,10.0,SSE,5.8,-,N/A,,Clear,160,2013-02-23 21:53:00
5:53 PM,78.1,70.0,76,29.95,10.0,Calm,Calm,-,N/A,,Clear,0,2013-02-23 22:53:00
6:53 PM,77.0,69.1,76,29.95,10.0,Calm,Calm,-,N/A,,Scattered Clouds,0,2013-02-23 23:53:00
7:53 PM,77.0,70.0,79,29.96,10.0,Calm,Calm,-,N/A,,Clear,0,2013-02-24 00:53:00
8:53 PM,77.0,71.1,82,29.99,10.0,Calm,Calm,-,N/A,,Scattered Clouds,0,2013-02-24 01:53:00
9:53 PM,75.9,71.1,85,29.99,9.0,Calm,Calm,-,N/A,,Scattered Clouds,0,2013-02-24 02:53:00
10:53 PM,75.9,71.1,85,29.99,9.0,SSE,3.5,-,N/A,,Partly Cloudy,150,2013-02-24 03:53:00
11:53 PM,77.0,72.0,84,29.99,10.0,SSE,4.6,-,N/A,,Overcast,160,2013-02-24 04:53:00